Powrót do katalogu

DELTA 1 DEB

AktywnyPO
NORAD 42655·DEBRIS·🇺🇸 United States

Wystrzelony Jun 12, 1975 z Vandenberg Space Force Base

Loading…

Następne Przeloty (najbliższe 24 godziny)

TLE

Starzejące sięSource: Space-Track

Epoka: Sep 4, 2026, 17:10 UTC

1 42655U 75052MQ  26247.71596662 -.00000544  00000-0 -80275-3 0  9994
2 42655  99.6059 217.1386 0568087 286.3280  67.6102 12.98686166606033

Śledź DELTA 1 DEB w czasie rzeczywistym z AllMySat

Download on the App Store